Temperature
16 16 16 16 16 16 16 16 16 17 17 17 17 17 17 17 17 17 17 17 17 17 17 17 17 17 17 17 17 17 16 16 16 16 16 16 16 16 16 16 16 16 15
15 16 16 16 16 16 16 16 16 16 16 16 16 16 16 16 16 16 16 17 17 17 17 17 17 17 16 16 16 16 16 16 16 16 16 16 16 16 16 16 16 16 15
15 16 16 16 16 16 16 16 16 16 16 16 16 16 16 16 16 16 16 16 16 16 16 16 16 16 16 16 16 16 16 16 16 16 16 16 16 16 16 16 15 15 15
15 15 15 16 16 16 16 16 16 16 16 16 16 16 16 16 16 16 16 16 16 16 16 16 16 16 16 16 16 16 16 16 16 16 16 16 15 15 16 15 15 15 15
14 15 15 15 15 16 16 16 16 16 16 16 16 16 16 16 16 16 16 16 16 16 16 16 16 16 16 16 16 16 16 16 15 15 15 15 15 15 15 15 15 15 15
14 15 15 15 15 15 15 15 15 15 15 15 16 16 16 16 16 16 16 15 15 15 16 16 16 16 16 16 16 16 16 15 15 15 15 15 15 15 15 15 15 15 15
14 14 15 15 15 15 15 15 15 15 15 15 15 15 15 15 15 15 15 15 15 15 15 15 16 16 16 16 16 16 15 15 15 15 15 15 15 15 15 15 15 15 15
14 14 14 14 15 15 15 15 15 15 15 15 15 15 15 15 15 15 15 15 15 15 15 15 15 15 15 15 15 15 15 15 15 15 15 15 15 15 15 15 15 15 14
14 14 14 14 14 14 14 14 14 14 14 14 14 14 14 14 14 15 15 15 15 15 15 15 15 15 15 15 15 15 15 15 15 14 14 14 14 14 14 14 14 14 14
13 13 13 13 13 14 14 14 14 14 14 14 14 14 14 14 14 14 14 14 14 14 15 15 15 15 15 15 15 15 15 15 14 14 14 14 14 14 14 14 14 14 14
13 12 13 13 13 13 13 13 13 13 13 14 14 14 13 13 13 13 14 14 14 14 14 14 14 14 14 14 14 14 14 14 14 14 14 14 14 14 13 13 13 14 13
12 12 12 12 13 13 13 13 13 13 13 13 13 13 13 13 13 13 13 13 13 13 14 14 14 14 14 14 14 14 14 14 13 13 13 13 13 13 13 13 13 13 13
12 12 12 12 12 12 12 12 12 12 12 12 12 12 12 13 13 13 12 13 13 13 13 13 13 13 13 13 13 13 13 13 13 13 13 13 13 13 13 13 13 13 13
12 12 12 12 12 12 12 12 12 12 12 12 12 12 12 12 12 12 12 12 12 12 12 12 12 12 12 12 12 12 12 12 12 12 12 12 12 12 12 12 12 12 12
12 12 12 12 12 12 12 12 12 12 12 12 12 12 11 11 11 11 11 11 11 11 11 11 11 12 12 12 12 12 12 12 12 12 12 12 12 12 12 12 12 12 12
12 12 12 12 12 12 12 11 11 11 11 11 11 11 11 11 11 11 11 11 11 11 11 11 11 11 11 11 11 11 11 12 12 12 12 12 12 11 11 11 11 11 11
12 12 12 11 11 11 11 11 11 11 11 11 11 11 11 10 10 10 10 10 10 10 10 10 10 10 10 11 11 11 11 11 11 11 11 11 11 11 11 11 11 10 10
12 11 11 11 11 11 11 11 11 10 10 10 10 10 10 10 10 10 10 10 10 10 10 10 10 10 10 10 10 10 10 11 11 11 11 10 10 10 10 10 10 10 10
12 11 11 11 11 11 10 10 10 10 10 10 10 10 10 10 10 10 9 9 9 9 9 9 9 9 9 10 10 10 10 10 10 10 10 10 10 9 9 9 9 9 9
11 11 11 11 10 10 10 10 10 10 9 10 10 10 9 9 9 9 9 9 9 9 9 9 9 9 9 9 9 9 9 10 10 9 9 9 9 9 9 9 9 9 9
11 11 10 10 10 10 10 9 9 9 9 9 9 9 9 9 9 9 9 9 8 8 8 8 8 8 8 8 8 8 9 9 9 8 8 8 8 8 8 8 8 8 8
11 10 10 10 10 10 9 9 9 9 9 9 9 9 8 8 8 8 8 8 8 8 8 8 8 7 7 7 7 6 6 7 8 8 8 8 7 7 8 8 8 8 8
10 10 10 10 10 9 9 9 8 8 8 8 8 8 8 8 8 8 8 8 8 8 7 7 7 7 7 7 6 6 5 6 6 7 7 7 7 7 7 7 7 7 7
10 10 10 9 9 9 9 8 8 8 8 8 8 8 8 8 7 7 7 7 7 7 7 7 7 6 6 6 6 6 5 5 5 5 6 6 6 6 6 7 7 7 7
10 10 9 9 9 9 8 8 8 8 8 8 7 7 7 7 7 7 7 7 7 7 6 6 6 6 6 5 5 5 5 5 5 4 4 5 6 6 6 6 6 6 6
10 9 9 8 8 8 8 8 8 8 7 7 7 7 7 7 7 7 6 6 6 6 6 6 6 6 5 5 5 5 5 4 4 4 4 4 5 5 5 5 5 5 5
Wind_Speed
8 10 11 11 12 12 12 12 12 11 11 11 10 10 9 9 8 7 7 6 6 6 5 5 4 4 4 4 4 3 3 4 4 4 4 4 3 4 4 5 3 3 5
11 13 13 12 12 12 12 12 12 12 12 11 10 10 9 9 9 8 7 7 6 6 5 4 3 4 4 3 3 3 2 2 2 2 2 2 2 3 3 3 3 3 4
12 13 13 12 12 12 12 12 12 12 11 11 11 10 9 9 8 8 8 7 7 6 5 4 4 3 4 3 3 2 2 1 0 1 1 2 2 3 3 3 3 3 3
12 13 13 12 12 12 12 12 11 11 11 11 11 10 10 9 9 8 7 7 7 7 7 6 4 3 3 3 2 1 1 1 1 1 2 2 2 3 3 2 2 2 2
12 14 14 13 12 12 12 11 11 11 11 10 10 10 10 9 9 8 8 7 6 6 6 6 5 4 3 2 1 1 1 2 2 2 3 1 1 3 3 2 2 2 2
11 14 14 13 12 11 11 11 11 10 10 10 9 9 9 9 8 9 8 8 6 5 6 6 6 5 4 2 1 1 1 2 2 3 3 2 1 3 3 3 2 2 2
11 12 13 13 12 11 10 10 10 10 10 9 8 8 8 8 8 7 8 7 7 5 5 5 6 5 4 4 3 2 2 3 3 3 3 1 0 3 3 3 3 3 3
11 11 12 13 12 12 11 10 10 9 9 8 8 7 7 7 7 7 7 7 7 6 5 4 4 4 3 3 3 2 2 2 3 3 2 1 1 2 2 2 3 4 4
10 9 9 10 11 11 11 10 9 9 8 8 8 7 7 7 7 7 6 6 6 6 5 4 3 3 3 3 2 2 2 3 3 3 2 1 1 2 2 3 4 4 5
8 7 7 8 9 9 9 9 9 8 7 7 6 6 5 5 6 6 6 6 6 5 5 4 4 3 3 3 3 3 3 4 4 3 1 1 2 3 3 4 4 5 6
7 6 6 6 7 8 7 8 8 6 5 5 4 3 4 4 4 4 4 4 5 5 5 5 5 4 4 3 3 3 4 3 4 2 1 2 3 4 5 5 5 5 6
7 6 5 6 6 5 5 6 5 4 4 4 4 4 4 4 3 4 3 4 4 5 5 6 6 5 4 3 3 3 3 4 3 2 2 3 4 6 7 6 6 6 6
7 6 6 5 5 4 3 3 4 4 3 4 3 3 3 3 3 3 3 3 4 4 5 6 5 4 3 2 2 2 3 3 3 2 2 4 5 7 8 8 8 8 8
7 6 6 5 4 4 3 2 3 2 2 3 3 3 4 3 3 3 3 3 4 4 3 4 3 4 3 3 2 2 3 2 3 2 3 4 6 8 9 10 10 10 10
7 6 6 5 4 3 2 1 2 2 2 3 3 3 3 2 1 2 2 3 4 5 4 3 3 3 3 3 2 3 3 3 4 3 3 5 6 8 10 11 11 11 11
7 7 6 6 5 4 3 2 1 2 3 3 2 2 3 2 2 1 1 2 3 4 4 4 4 3 3 2 3 3 4 4 4 3 4 5 7 8 10 12 12 13 13
8 7 6 6 5 4 3 2 2 2 2 2 2 2 2 2 2 1 1 1 3 4 5 4 4 3 3 3 4 4 3 4 4 4 4 5 6 8 10 12 13 14 14
8 8 7 6 5 4 3 2 1 2 2 2 2 2 2 2 2 1 1 1 3 4 3 3 3 3 3 4 4 4 4 4 5 4 4 4 5 6 7 11 13 14 14
8 8 7 6 6 4 3 2 2 2 1 1 2 2 1 1 2 1 1 1 3 2 2 3 3 3 4 4 5 4 4 4 5 5 5 4 5 5 6 9 11 13 14
8 8 7 6 5 4 3 2 1 1 1 1 2 1 1 1 1 2 1 2 2 2 2 3 3 3 3 4 6 6 4 5 4 4 5 4 4 6 6 7 7 10 14
8 8 7 6 5 4 3 2 2 1 1 1 1 1 1 0 0 1 1 2 2 2 3 3 3 4 4 4 4 5 5 4 5 3 3 4 5 6 6 6 6 7 9
8 8 8 7 6 5 3 3 2 2 1 1 1 1 1 1 1 1 1 2 2 2 3 3 3 3 3 3 2 4 4 4 2 4 4 5 5 4 5 6 7 7 7
8 8 8 7 6 5 4 3 2 1 1 1 2 2 2 2 2 1 2 2 2 2 2 3 3 3 3 3 2 2 2 4 5 3 4 4 4 4 5 5 6 7 8
8 8 8 7 6 5 5 4 4 3 2 3 2 2 3 2 2 2 2 2 2 2 3 3 3 3 3 4 3 3 4 4 4 5 4 4 5 6 6 6 6 7 8
8 8 7 7 6 5 5 5 4 3 2 2 2 3 3 3 3 3 3 2 3 3 3 4 4 3 3 4 4 4 5 4 5 6 8 6 6 5 6 6 6 6 7
8 7 7 7 6 6 6 5 5 4 3 3 2 3 3 2 3 3 3 3 3 3 4 4 4 4 4 5 4 4 4 4 4 5 7 9 9 7 7 6 6 6 6
Wind_Direction
105 104 100 95 90 84 79 74 74 73 72 71 72 72 71 71 72 71 73 76 74 72 75 80 86 85 86 75 66 74 82 87 87 86 88 94 99 103 102 100 93 95 108
111 107 100 95 90 87 82 77 74 72 70 69 67 68 68 67 67 67 66 68 67 64 66 71 78 86 91 90 81 73 81 94 92 97 115 125 129 128 120 111 96 104 118
111 109 100 95 92 87 84 80 77 74 71 68 65 64 64 64 63 64 63 62 60 57 56 56 65 73 74 80 83 83 71 49 156 184 192 185 157 151 138 118 104 108 125
111 107 103 98 93 89 85 81 78 75 72 68 64 61 61 60 57 57 59 58 58 55 50 49 53 60 64 70 73 66 36 329 303 242 234 213 168 150 149 136 130 124 127
103 103 104 102 97 92 87 82 78 75 72 68 64 61 60 58 57 54 52 51 55 55 50 45 45 53 57 53 49 44 320 301 298 281 274 247 154 157 156 148 149 161 168
106 105 109 105 99 94 89 84 79 75 72 68 64 61 58 56 55 52 52 49 49 53 49 42 40 45 45 32 6 333 304 304 305 293 281 264 173 177 173 174 181 185 202
106 106 111 109 104 98 92 87 81 76 71 67 64 61 59 57 55 51 48 44 41 46 48 43 37 36 35 32 28 4 321 289 285 299 308 315 140 179 186 196 211 216 223
106 104 111 113 108 102 95 90 84 79 73 67 64 60 56 55 54 52 48 43 39 38 40 37 28 22 20 20 16 356 338 305 288 296 321 339 288 207 206 217 229 229 231
108 110 110 111 108 105 99 93 88 81 76 71 66 61 57 56 53 50 46 40 35 30 26 20 11 7 5 356 348 338 301 294 308 296 283 352 289 246 238 243 249 245 242
113 118 120 118 112 105 102 101 98 91 84 79 70 62 57 54 49 44 39 33 24 17 10 1 347 336 327 323 310 302 300 280 274 278 282 236 275 277 266 261 261 259 252
130 130 127 116 106 106 110 112 114 110 106 97 82 62 50 50 47 44 45 26 13 5 358 350 338 318 303 290 289 288 289 271 261 252 248 227 266 274 276 270 267 264 260
145 137 123 112 107 105 108 121 127 118 112 94 71 54 52 42 32 33 36 18 359 351 345 337 329 319 307 304 293 284 272 277 277 247 224 216 267 274 274 272 268 267 268
147 136 122 116 110 105 100 112 98 94 92 80 65 57 51 38 30 25 19 4 351 351 343 331 325 326 314 312 302 292 286 279 280 266 223 228 262 272 273 270 269 266 266
137 128 122 121 121 115 108 101 110 102 89 78 61 53 48 40 29 19 25 5 6 356 343 336 334 330 319 312 297 282 297 301 287 273 238 235 260 272 276 271 269 267 268
140 135 131 128 128 125 113 122 110 103 97 92 71 55 54 54 14 20 19 13 6 354 348 335 335 328 315 310 297 291 283 285 282 280 247 244 256 268 276 275 271 269 268
145 143 138 137 135 131 135 145 122 107 115 104 84 62 54 52 34 20 6 4 0 347 338 336 334 320 305 298 287 287 283 285 282 282 261 252 256 265 274 275 275 274 271
150 147 143 143 137 139 146 152 124 121 116 110 102 81 53 48 31 26 359 348 347 340 338 337 332 328 318 313 299 289 282 281 284 272 269 260 255 263 271 276 277 276 274
152 150 149 151 144 144 139 136 125 114 100 107 115 100 68 37 24 17 343 334 348 346 342 326 330 331 324 313 300 287 279 275 279 273 265 258 253 260 271 276 277 277 279
152 149 148 147 148 146 144 153 147 130 130 114 100 90 68 21 9 11 333 325 346 342 328 322 333 329 318 312 299 286 275 269 269 274 268 253 247 250 259 270 276 280 280
147 145 147 144 147 143 140 144 129 135 146 111 102 113 112 21 8 1 335 329 343 327 322 322 322 321 310 305 304 298 280 271 266 259 261 262 259 257 258 262 263 271 275
148 148 151 151 154 146 148 154 153 166 175 163 156 153 179 206 322 346 311 309 311 301 297 305 310 311 312 317 312 306 289 270 263 262 273 273 265 264 264 262 260 258 264
155 154 156 160 160 155 162 167 169 172 188 193 202 206 218 227 244 274 267 276 286 290 301 304 304 304 309 330 314 313 311 307 297 293 276 261 260 268 270 271 267 262 261
160 161 165 163 161 160 160 152 151 140 180 238 227 219 222 223 229 254 267 273 284 283 282 287 292 298 300 305 305 286 294 290 306 272 263 269 266 268 269 272 269 267 265
165 161 161 161 161 162 156 158 169 188 211 226 222 229 236 226 232 239 252 259 268 274 278 280 289 280 277 285 289 265 257 272 290 300 289 275 281 279 272 277 272 267 263
158 159 161 160 162 163 164 171 181 198 219 226 224 235 243 239 229 235 243 252 262 268 271 278 281 276 267 266 271 277 277 277 266 275 290 292 285 272 268 268 268 266 264
154 157 163 163 166 169 172 180 186 196 210 219 233 237 246 248 241 238 242 244 257 265 267 268 266 267 266 266 267 265 266 265 268 271 281 291 294 288 279 272 268 268 268
Height
1494 1495 1497 1498 1499 1501 1502 1503 1505 1506 1507 1508 1509 1510 1511 1511 1512 1513 1514 1515 1515 1516 1516 1517 1518 1518 1518 1519 1520 1521 1521 1521 1521 1522 1522 1522 1522 1522 1522 1522 1523 1523 1523
1493 1495 1496 1498 1499 1501 1502 1503 1505 1506 1507 1508 1509 1510 1511 1511 1512 1513 1514 1514 1515 1516 1516 1516 1517 1518 1518 1519 1519 1520 1521 1521 1521 1521 1522 1522 1522 1522 1522 1522 1522 1523 1523
1493 1494 1496 1498 1499 1500 1502 1503 1505 1506 1507 1508 1509 1509 1510 1511 1512 1512 1513 1513 1514 1515 1515 1516 1516 1517 1518 1518 1518 1519 1520 1520 1521 1521 1521 1521 1521 1522 1522 1522 1522 1522 1523
1493 1494 1496 1497 1499 1500 1502 1503 1504 1505 1506 1507 1508 1509 1510 1510 1511 1511 1512 1513 1513 1514 1514 1515 1515 1516 1516 1517 1518 1518 1519 1520 1520 1520 1521 1521 1521 1521 1521 1521 1521 1522 1522
1493 1494 1496 1497 1499 1500 1501 1503 1504 1505 1506 1507 1508 1508 1509 1509 1510 1511 1511 1512 1512 1513 1513 1514 1514 1515 1515 1516 1517 1517 1518 1518 1519 1520 1520 1520 1520 1520 1520 1520 1521 1521 1521
1493 1494 1495 1497 1498 1500 1501 1502 1503 1504 1505 1506 1507 1507 1508 1508 1509 1509 1510 1511 1511 1512 1512 1513 1513 1513 1514 1515 1515 1516 1516 1517 1517 1518 1519 1519 1519 1519 1519 1519 1520 1520 1520
1492 1493 1495 1497 1498 1499 1500 1501 1502 1503 1504 1505 1505 1506 1506 1507 1507 1508 1509 1509 1510 1510 1511 1511 1512 1512 1512 1513 1513 1514 1514 1515 1516 1516 1517 1517 1517 1517 1517 1518 1518 1518 1519
1491 1493 1494 1496 1497 1498 1499 1500 1501 1502 1503 1503 1504 1504 1505 1505 1506 1506 1507 1508 1508 1509 1509 1509 1510 1510 1510 1511 1511 1512 1513 1513 1513 1514 1515 1515 1516 1516 1516 1516 1516 1516 1516
1491 1492 1494 1495 1496 1497 1498 1499 1500 1501 1501 1502 1502 1503 1503 1504 1504 1505 1505 1506 1506 1507 1507 1507 1508 1508 1508 1509 1509 1510 1510 1511 1511 1512 1513 1513 1513 1513 1513 1513 1513 1514 1514
1491 1492 1493 1494 1495 1496 1497 1498 1499 1500 1500 1501 1501 1501 1502 1502 1502 1503 1503 1504 1504 1504 1505 1505 1505 1506 1506 1506 1507 1507 1508 1508 1509 1510 1510 1510 1511 1511 1511 1511 1511 1511 1511
1490 1492 1493 1493 1494 1495 1496 1497 1498 1498 1499 1499 1500 1500 1500 1500 1501 1501 1501 1502 1502 1502 1502 1503 1503 1503 1503 1504 1504 1504 1505 1505 1506 1506 1507 1507 1508 1508 1508 1508 1508 1508 1508
1489 1491 1491 1492 1493 1494 1495 1496 1496 1497 1497 1498 1498 1499 1499 1499 1499 1499 1499 1500 1500 1500 1500 1500 1500 1500 1501 1501 1501 1501 1502 1502 1502 1503 1503 1504 1504 1504 1505 1504 1504 1504 1504
1488 1489 1490 1491 1492 1493 1494 1494 1495 1496 1496 1497 1497 1497 1497 1497 1498 1498 1498 1498 1498 1498 1497 1498 1498 1498 1498 1498 1498 1498 1499 1499 1499 1499 1499 1500 1500 1501 1501 1501 1501 1501 1501
1486 1487 1488 1489 1490 1491 1492 1493 1494 1495 1495 1495 1496 1496 1496 1496 1496 1496 1496 1496 1495 1495 1495 1495 1495 1495 1495 1495 1495 1495 1495 1495 1496 1496 1496 1496 1496 1497 1497 1497 1497 1497 1497
1484 1485 1486 1487 1488 1489 1491 1491 1492 1493 1494 1494 1495 1495 1495 1494 1494 1494 1494 1494 1494 1493 1493 1493 1493 1493 1492 1492 1492 1492 1492 1492 1492 1492 1492 1492 1492 1492 1492 1492 1492 1492 1492
1481 1482 1484 1485 1487 1488 1489 1490 1491 1492 1492 1493 1493 1493 1493 1493 1493 1493 1492 1492 1492 1491 1491 1491 1490 1490 1490 1489 1489 1489 1488 1488 1488 1488 1488 1488 1488 1488 1488 1488 1488 1488 1488
1478 1480 1481 1483 1485 1486 1487 1488 1489 1490 1491 1491 1491 1492 1492 1491 1491 1491 1491 1490 1490 1489 1489 1488 1488 1487 1486 1486 1485 1485 1484 1484 1484 1483 1483 1483 1483 1483 1483 1483 1483 1483 1483
1475 1477 1479 1481 1482 1484 1485 1486 1487 1488 1489 1489 1490 1490 1490 1490 1490 1489 1489 1488 1488 1487 1486 1486 1485 1484 1484 1483 1482 1481 1480 1480 1479 1479 1479 1479 1478 1478 1478 1478 1478 1478 1477
1472 1474 1476 1478 1480 1482 1483 1484 1485 1486 1487 1487 1488 1488 1488 1488 1488 1487 1487 1486 1486 1485 1484 1483 1482 1482 1481 1479 1478 1477 1476 1475 1475 1474 1474 1474 1474 1474 1473 1473 1473 1473 1472
1470 1471 1473 1475 1477 1479 1480 1482 1483 1484 1485 1485 1486 1486 1486 1486 1486 1485 1485 1484 1484 1483 1482 1481 1480 1479 1478 1477 1475 1473 1472 1471 1470 1470 1470 1469 1469 1469 1468 1468 1468 1467 1467
1467 1468 1470 1472 1474 1476 1477 1478 1480 1481 1482 1483 1483 1483 1484 1484 1483 1483 1482 1482 1481 1480 1479 1478 1477 1476 1475 1474 1472 1469 1467 1467 1466 1466 1466 1465 1465 1464 1464 1463 1462 1462 1461
1463 1465 1467 1469 1471 1473 1474 1476 1477 1478 1479 1480 1480 1481 1481 1481 1481 1480 1480 1479 1478 1478 1477 1476 1475 1473 1472 1472 1470 1467 1464 1462 1462 1462 1461 1460 1459 1459 1459 1458 1457 1456 1455
1459 1461 1463 1466 1468 1470 1472 1473 1475 1476 1476 1477 1477 1478 1478 1478 1478 1478 1477 1476 1476 1475 1474 1473 1472 1471 1469 1469 1469 1468 1465 1460 1457 1455 1456 1456 1455 1455 1454 1453 1452 1451 1450
1456 1459 1461 1463 1465 1467 1469 1470 1471 1472 1472 1473 1474 1475 1475 1475 1475 1474 1474 1473 1473 1472 1471 1470 1469 1468 1467 1465 1465 1465 1464 1461 1459 1452 1451 1451 1451 1450 1449 1448 1447 1446 1444
1453 1456 1458 1460 1462 1464 1465 1467 1468 1469 1470 1471 1471 1471 1471 1471 1471 1471 1471 1470 1469 1468 1467 1467 1466 1465 1464 1462 1461 1461 1459 1458 1457 1454 1447 1445 1444 1444 1443 1442 1441 1440 1439
1450 1453 1455 1457 1458 1460 1462 1464 1465 1466 1466 1467 1467 1467 1468 1468 1467 1467 1467 1466 1465 1464 1464 1463 1462 1461 1460 1459 1458 1456 1455 1453 1452 1450 1446 1441 1439 1437 1437 1436 1435 1434 1433